Погода в Крутинке

Россия / Омская область     56°00′22″N   71°30′35″E
темп.,
°C
ветер,
м/с
пор.,
м/с
влажн.,
%
обл.,
%
осадки,
мм/ч
давл.,
гПа
погр.,
м
8 декабря, ср
ср800:00−22з369815 0.0 103584
03:00−22зюз36945 0.0 103684
06:00−21зюз48915 0.0 1037104
09:00−21зюз38937 0.0 1037112
12:00−18з37915 0.0 1039159
15:00−16з37895 0.0 1039162
18:00−19з36925 0.0 104177
21:00−19з35945 0.0 104265
9 декабря, чт
чт900:00−21зюз22965 0.0 104328
03:00−20зюз34935 0.0 104357
06:00−20юз3689100 0.0 104380
09:00−17ююз4986100 0.0 1042142
12:00−13ююз51183100 0.0 1042243
15:00−9юз61482100 0.0 1040377
18:00−9юз7147789 0.0 1039371
21:00−9юз6147778 0.0 1038337
10 декабря, пт
пт1000:00−9юз6137884 0.0 1038292
03:00−11юз5127891 0.0 1038211
06:00−11юз51176100 0.0 1037199
09:00−12юз51177100 0.0 1036163
12:00−10юз5127487 0.0 1036194
15:00−8ююз61374100 0.0 1034242
18:00−9ююз51177100 0.0 1033176
21:00−8ююз61376100 0.0 1031213
11 декабря, сб
сб1100:00−7ююз61377100 0.0 1029235
03:00−8ююз51180100 0.0 1028202
06:00−9ююз51081100 0.0 1026165
09:00−10юз3787100 0.0 1025109
12:00−10зюз2589100 0.0 102591
15:00−9сз2494100 0.0 102480
18:00−10с3897100 0.0 1023145
21:00−12с4989100 0.0 1024229
12 декабря, вс
вс1200:00−13с5990100 0.0 1024294
03:00−14ссз51091100 0.0 1024326
06:00−16ссз41094100 0.0 1025249
09:00−19ссз5119620 0.0 1026212
12:00−18ссз5109452 0.0 1028307
15:00−17сз499461 0.0 1029322
18:00−18сз499616 0.0 1031168
21:00−19сз48975 0.0 1033133